{"data":{"norad_id":39441,"epoch":"2026-09-19T07:04:43.176288Z","epoch_age_seconds":118340,"freshness":"FRESH","line1":"1 39441U 13066AB  26262.29494417  .00001183  00000+0  13340-3 0  9991","line2":"2 39441  97.8943 200.8808 0066945 120.2607 240.5258 14.86916825690187","mean_motion":14.86916825,"eccentricity":0.0066945,"inclination_deg":97.8943,"raan_deg":200.8808,"arg_perigee_deg":120.2607,"mean_anomaly_deg":240.5258,"bstar":0.0001334,"rev_number":69018,"period_min":96.844690690752,"perigee_km":560.80990504383,"apogee_km":654.34161317555,"semimajor_km":6985.7127591097,"source":"CELESTRAK","updated_at":"2026-09-20T09:00:48.023440Z"}}